Temp
25 25 25 25 26 26 26 26 27 26 26 25 25 25 25 25 25 25 25 25 25 26
25 25 25 25 26 26 27 27 27 27 26 25 25 25 25 25 24 24 25 25 25 25
24 24 24 24 25 26 26 26 27 27 26 26 26 25 25 25 25 24 24 25 25 25
23 24 24 24 25 26 26 26 26 27 27 26 26 26 25 25 25 24 24 24 24 25
23 23 23 23 24 25 26 26 26 26 26 26 26 26 25 25 25 24 24 24 24 24
23 23 23 23 23 24 25 26 27 26 26 26 27 26 26 25 25 25 25 24 24 24
23 23 23 23 23 23 24 25 26 26 27 26 26 26 26 26 25 25 25 25 24 24
24 24 23 23 23 24 24 24 25 26 26 26 26 25 25 25 26 25 25 25 25 24
24 23 24 23 23 23 23 24 24 25 25 25 25 25 26 26 25 25 24 24 25 25
24 24 24 24 23 23 23 23 24 24 24 24 25 25 25 25 25 24 24 24 24 24
25 25 24 24 24 24 24 23 23 23 24 24 24 24 25 25 25 24 24 24 24 23
26 25 25 24 24 24 24 24 24 24 24 24 24 24 24 24 24 24 24 24 23 23
27 26 26 25 25 25 25 25 24 24 24 24 24 24 24 24 24 23 23 23 24 23
28 27 27 26 26 25 25 25 25 25 25 24 24 24 24 24 24 24 24 24 24 24
Height
797 803 807 811 814 818 821 825 828 831 834 836 840 842 845 847 849 851 853 855 856 856
791 797 800 805 810 814 817 820 823 826 829 832 836 839 842 844 846 849 852 853 854 855
784 790 796 800 804 808 812 815 818 821 824 828 831 835 838 841 843 845 847 849 850 850
779 785 790 794 798 802 807 810 813 816 819 822 827 830 833 835 837 839 842 843 845 847
772 777 782 787 791 795 799 804 808 812 815 818 820 822 826 829 832 834 835 837 840 840
765 770 775 779 784 789 794 797 803 806 807 809 812 816 819 823 826 827 828 830 832 833
757 762 767 771 776 781 785 790 794 797 800 803 805 808 812 815 819 820 822 824 825 828
747 753 759 764 768 772 777 781 786 790 793 795 798 801 805 808 810 812 814 816 818 820
740 745 750 754 759 763 767 772 777 780 784 786 788 792 796 800 803 805 807 809 810 812
732 738 742 747 752 756 760 764 767 771 774 776 778 783 788 792 795 797 797 799 801 802
726 731 735 741 744 748 753 756 758 762 765 767 769 775 780 785 788 789 788 788 790 791
717 723 727 732 737 740 745 748 751 753 755 757 761 766 771 777 780 779 777 779 780 780
709 714 717 722 727 731 735 738 742 744 745 747 752 757 761 766 770 768 768 771 769 769
700 704 708 714 719 724 727 731 734 735 738 740 743 747 751 756 759 758 761 760 759 761
Wind_Speed
41 39 37 35 31 32 29 30 28 30 28 27 25 23 23 21 20 18 18 16 14 13
45 42 40 39 37 32 29 28 28 29 32 30 29 25 25 23 24 23 18 20 18 17
42 42 39 37 37 36 34 28 29 30 34 32 31 30 28 28 26 25 22 21 20 22
36 36 40 39 40 40 35 30 30 31 33 34 35 34 33 32 30 28 27 25 24 22
37 38 38 40 41 41 40 39 34 31 30 28 35 39 38 35 33 32 31 31 27 28
36 36 38 40 39 42 41 40 39 35 29 34 33 35 39 38 36 34 37 35 33 33
36 36 37 41 40 38 42 42 39 42 40 33 33 35 36 39 39 37 36 37 37 37
39 39 37 36 39 40 38 41 45 41 42 40 39 37 38 40 41 41 40 39 40 40
36 37 38 38 36 38 39 40 39 43 39 41 43 38 41 41 42 43 42 41 42 42
36 35 37 36 35 34 36 36 40 38 40 40 41 40 40 41 43 39 42 42 40 41
33 35 34 33 34 35 33 35 37 38 38 39 41 40 40 40 43 40 40 42 41 40
36 33 34 33 33 35 33 33 34 35 37 38 37 38 39 38 41 43 43 39 39 41
34 37 37 36 35 35 36 35 33 34 35 37 36 35 36 38 40 39 37 36 40 42
39 40 39 36 36 33 33 32 32 32 33 33 32 34 34 35 40 39 32 34 36 35
Wind_Direction
209 212 216 217 220 222 220 222 226 222 220 222 221 221 217 219 217 219 219 214 214 214
208 211 215 221 224 226 227 228 229 227 220 224 221 223 219 217 220 224 227 226 226 225
207 211 215 219 223 225 229 230 230 230 223 225 226 222 222 222 223 221 225 228 231 233
207 211 216 219 224 224 225 226 226 229 229 229 228 227 222 225 225 224 226 229 231 234
207 211 213 217 223 226 228 228 231 229 227 231 232 229 226 225 226 226 227 229 231 234
203 205 212 218 220 226 229 232 230 233 232 230 228 228 229 228 229 231 232 233 233 235
202 205 210 219 221 221 226 230 233 231 235 233 228 225 226 227 230 235 237 237 238 240
204 206 209 214 219 223 221 227 231 233 233 236 235 230 227 228 230 233 237 241 241 243
203 205 208 211 214 217 222 222 226 230 229 232 235 231 233 233 230 232 233 236 243 246
203 204 208 210 211 213 216 219 223 226 228 230 234 232 232 232 231 230 234 236 238 242
202 205 209 208 211 215 215 217 220 224 228 231 234 235 234 234 234 231 236 238 239 238
202 203 207 209 209 215 216 219 222 224 227 229 233 235 237 234 235 236 238 239 240 240
203 205 209 210 211 214 216 221 223 227 228 230 231 233 235 233 234 237 239 242 244 245
209 210 213 212 214 215 216 221 225 228 230 232 233 230 232 231 230 234 242 244 248 249